Theta_e
357 361 366 364 365 364 363 362 363 362 362 363 364 363 363 362 362 362 363 364 363 363 361 360 361 359 357 356 356 355 355 355 351 351 353 352 353 356 357 357 354 347 351
359 362 366 364 364 363 363 362 362 362 362 362 363 363 363 362 363 363 363 362 362 362 360 360 361 359 356 354 352 352 351 351 352 351 351 353 353 355 357 357 357 350 353
359 362 364 365 363 363 362 361 362 361 361 362 362 362 363 363 363 362 362 360 361 360 360 360 360 357 354 351 349 348 348 349 348 348 350 346 349 354 355 360 360 357 357
359 359 361 365 362 363 361 360 361 361 360 361 361 362 362 362 362 361 361 361 360 359 360 359 358 356 354 350 347 346 346 345 345 346 344 342 342 353 356 358 360 359 358
357 359 360 365 363 363 360 360 361 360 360 359 359 360 360 361 360 360 361 361 360 359 359 358 357 355 352 349 347 348 346 342 342 340 335 335 337 339 351 360 361 360 360
357 358 363 365 362 363 360 359 360 360 360 360 359 359 359 360 360 360 361 361 360 359 358 357 357 354 352 350 349 348 345 342 343 334 334 334 338 338 345 362 362 361 359
354 357 362 364 364 363 360 359 359 360 360 360 359 358 359 360 360 360 361 360 360 359 358 357 357 355 353 350 348 348 345 344 340 335 333 334 335 342 343 363 361 359 353
355 357 359 364 364 362 362 360 360 360 360 360 359 358 359 359 359 359 360 360 360 360 358 357 356 354 351 349 347 347 347 344 340 337 337 338 354 354 357 359 353 355 355
356 356 357 359 361 362 361 360 360 359 359 359 358 358 358 358 358 359 359 359 359 359 358 357 355 353 351 348 347 348 348 345 342 340 338 343 355 357 356 356 356 354 352
352 354 356 358 358 358 358 361 360 359 359 358 358 358 358 358 358 358 357 358 359 358 357 356 355 353 351 349 349 349 348 347 343 341 339 346 353 357 356 355 352 351 349
351 351 353 355 357 356 357 358 359 359 359 358 358 358 356 354 354 356 356 356 358 358 357 356 355 353 352 350 350 349 348 344 343 339 338 351 358 357 354 351 350 348 345
346 348 349 354 354 354 356 355 355 355 355 355 355 354 353 353 352 353 355 356 357 357 357 357 356 355 351 345 342 342 337 338 341 339 339 356 357 354 350 349 348 345 343
346 347 350 351 353 352 354 354 354 354 354 354 353 352 352 349 348 352 350 351 352 354 353 352 350 347 345 343 341 338 337 337 340 339 347 357 355 353 348 346 346 343 341
337 346 348 349 349 351 351 353 351 349 350 349 350 350 347 345 344 345 346 346 347 348 349 348 345 343 341 340 339 337 336 337 340 344 352 355 354 351 347 346 345 341 338
305 313 345 347 348 349 347 352 350 349 349 348 349 349 348 345 343 343 343 344 343 346 345 344 343 340 339 338 337 337 338 340 338 345 349 355 352 350 347 346 344 341 336
304 316 342 345 347 345 347 350 349 350 349 348 348 349 348 345 344 342 341 341 341 342 343 343 342 340 338 337 337 338 339 341 339 344 346 350 350 348 348 347 344 341 336
304 305 328 345 345 342 344 345 346 348 348 348 349 348 346 346 345 342 340 339 341 341 341 341 340 339 337 337 336 338 340 343 341 342 342 343 345 347 348 348 344 340 336
303 304 307 327 345 342 342 343 344 343 346 347 347 347 347 348 345 341 339 339 341 341 341 340 339 338 337 337 338 340 343 344 341 339 338 338 340 339 345 347 345 338 335
304 303 306 318 343 344 344 343 340 338 340 342 342 342 344 347 346 343 340 340 341 340 340 339 339 338 338 338 338 341 344 343 342 339 337 336 335 335 336 338 344 339 333
305 304 305 311 338 344 343 339 340 338 340 340 340 341 341 343 345 340 340 339 339 339 338 337 338 338 338 339 340 336 338 337 336 335 336 335 332 331 332 333 333 334 331
305 304 304 306 312 338 336 338 336 340 339 339 342 343 343 342 343 341 338 338 339 337 338 339 337 336 337 338 334 331 329 328 326 326 330 326 323 326 326 328 328 327 328
306 305 304 306 310 334 338 336 337 337 336 338 338 340 343 343 343 341 340 340 340 338 338 337 337 336 336 335 334 327 327 322 317 314 314 316 318 319 319 321 321 318 318
309 305 306 306 310 323 333 334 334 336 336 334 333 334 337 340 343 345 343 342 341 339 336 337 337 336 331 329 330 331 321 323 313 314 312 313 313 314 314 314 314 314 314
311 307 306 307 309 317 330 333 331 329 325 327 330 334 335 337 340 342 342 342 341 339 338 336 338 337 332 327 324 325 322 323 315 308 310 309 310 310 310 311 310 310 311
311 312 312 312 316 320 328 329 326 322 322 328 330 331 334 336 338 340 340 340 339 339 340 338 338 337 333 328 324 319 318 318 317 312 306 305 307 308 307 307 307 308 309
311 311 314 315 315 318 322 323 321 318 322 323 327 328 330 332 336 340 341 340 339 338 337 337 338 337 330 327 324 321 319 318 314 311 306 304 304 305 306 305 305 305 306
Wind_Speed
4 7 13 16 12 11 15 16 15 14 15 15 16 16 17 16 16 15 15 13 13 13 13 11 9 8 7 6 6 5 4 5 6 7 8 9 9 10 10 10 10 8 10
8 10 13 13 12 11 13 15 15 14 15 15 16 16 17 16 16 15 14 14 13 13 13 10 9 7 6 5 5 5 4 5 5 6 7 7 8 9 8 9 10 7 10
7 9 9 12 13 11 12 14 15 14 15 15 15 15 15 16 16 14 14 13 13 13 12 10 9 8 6 5 5 4 4 4 4 4 6 4 5 9 10 11 11 8 8
7 5 6 11 14 13 12 12 13 14 14 14 15 15 15 15 15 15 14 14 13 13 11 10 8 7 6 5 4 3 3 3 2 4 3 4 5 10 11 10 10 8 8
7 5 6 11 12 13 13 12 12 13 13 14 14 13 14 14 14 14 13 12 12 12 12 10 8 7 5 4 2 2 1 0 1 1 3 4 4 7 9 13 11 9 8
5 6 8 9 12 12 13 13 13 13 13 13 13 13 13 12 12 11 11 11 11 11 11 9 8 6 5 3 2 2 2 2 1 3 3 5 6 9 10 11 10 7 5
4 4 6 10 10 11 13 13 13 13 13 13 13 13 12 11 11 10 10 10 10 10 10 8 6 5 4 4 2 2 3 4 2 3 4 5 6 10 7 7 6 1 5
6 4 4 8 9 10 11 12 12 12 13 13 12 12 12 11 10 10 9 9 9 8 8 7 6 6 4 4 4 3 4 5 4 4 4 5 6 2 8 7 2 2 4
4 4 3 3 6 9 9 11 12 12 12 12 11 12 11 11 10 9 9 8 8 7 7 6 6 5 4 5 6 5 5 6 3 3 4 3 1 6 7 6 8 9 8
2 3 3 4 4 4 5 10 10 12 12 12 12 11 11 11 10 9 8 8 8 7 6 5 6 6 5 5 7 7 7 8 4 4 3 3 3 6 8 9 9 10 10
2 4 4 7 7 8 5 6 10 12 11 11 11 12 9 4 5 7 6 8 7 7 6 6 7 7 6 5 7 8 10 3 5 4 3 5 6 8 9 10 10 10 9
5 5 5 7 9 7 6 5 4 5 5 5 5 5 4 6 5 6 7 9 9 8 7 7 7 8 8 2 3 6 3 5 4 4 3 7 8 8 8 10 11 9 9
5 3 7 7 9 10 6 4 5 4 4 5 8 5 6 6 6 5 2 2 2 6 3 4 4 3 4 3 3 4 5 5 4 3 5 10 9 10 10 9 9 9 9
6 8 8 7 7 10 4 5 5 6 7 5 8 9 8 6 6 7 6 5 4 4 5 4 3 4 6 5 4 6 7 5 3 3 5 9 10 11 10 9 9 8 8
8 10 9 8 9 8 7 6 5 8 8 8 8 7 8 6 7 6 6 4 4 5 4 4 4 5 6 6 5 6 7 6 5 4 4 12 11 10 9 9 9 9 8
10 10 9 9 12 8 9 10 8 7 8 7 6 7 8 8 7 6 4 5 5 5 5 5 5 5 5 5 7 5 7 4 5 6 4 5 10 10 10 11 10 9 8
9 10 9 10 8 10 12 8 7 7 6 6 6 6 8 8 6 6 4 4 6 5 6 5 5 4 5 5 7 4 6 4 6 8 5 3 5 9 9 9 10 9 7
8 10 10 6 10 11 9 9 7 7 7 6 5 6 9 9 8 6 5 6 5 4 5 5 4 5 5 4 4 4 3 4 5 5 4 3 3 2 7 9 8 7 6
10 9 10 8 11 13 11 8 5 3 4 5 5 5 8 10 10 8 7 5 5 5 5 5 4 4 4 4 4 2 3 2 2 4 3 5 3 3 4 4 6 4 3
10 9 9 6 8 10 4 5 4 3 5 5 6 6 7 7 10 8 6 7 5 5 5 5 7 4 4 3 2 3 3 3 3 1 3 1 2 2 3 2 2 2 5
12 9 10 8 11 5 3 4 3 6 5 3 5 7 8 7 9 9 6 7 6 6 8 7 4 5 4 3 3 2 4 4 5 5 3 3 4 2 1 3 3 3 7
14 11 9 10 7 8 5 2 3 3 2 2 3 5 4 2 5 7 9 8 10 8 8 6 6 3 3 5 3 1 4 2 5 5 4 3 6 4 6 8 9 8 7
17 14 9 9 9 9 7 4 4 4 2 1 1 1 3 5 7 9 9 9 10 8 7 7 6 8 5 2 2 4 2 3 2 4 7 6 7 6 7 8 9 9 7
18 11 7 5 7 2 6 4 7 5 4 1 3 1 3 4 6 8 9 8 7 7 9 8 5 5 3 4 2 1 3 4 4 4 4 5 7 7 7 6 7 7 8
19 16 9 3 2 4 7 6 1 4 3 3 1 3 2 2 4 6 9 10 8 6 7 8 9 11 10 5 4 4 3 2 4 2 3 2 5 5 5 5 5 6 7
20 19 15 8 4 8 7 6 5 6 4 4 3 3 2 3 3 6 7 7 8 9 9 8 8 7 4 2 3 3 4 4 3 3 2 2 3 2 3 4 5 5 5
Wind_Direction
203 155 163 161 161 138 128 125 120 117 116 117 120 123 126 130 136 138 140 139 137 144 144 144 139 141 140 143 139 130 117 117 134 144 151 161 170 176 188 191 183 184 184
141 157 160 160 150 139 129 129 129 129 125 124 126 129 130 133 138 141 138 137 145 152 153 154 152 151 152 158 153 151 148 137 151 162 173 180 186 196 203 200 201 203 195
121 139 150 155 152 144 137 136 135 135 134 134 135 135 137 139 142 140 141 147 153 159 160 161 163 166 170 170 169 165 156 157 173 184 198 203 210 209 214 213 213 211 211
121 114 132 155 155 148 142 142 140 140 140 143 144 145 147 146 150 150 152 154 158 162 164 170 178 181 183 184 182 178 171 168 193 216 224 226 233 224 223 223 227 220 218
107 114 146 161 156 152 150 147 144 144 147 148 148 150 152 153 155 154 155 157 162 167 173 181 188 195 204 194 191 209 192 117 273 287 240 236 243 260 247 225 218 222 227
109 127 157 160 165 159 157 155 153 150 151 154 154 157 158 159 158 158 160 161 170 176 182 190 193 204 216 219 224 264 311 315 358 316 291 268 262 260 272 209 204 219 252
125 139 157 165 168 167 166 165 162 157 158 162 162 164 163 164 164 166 168 172 177 183 189 197 204 214 227 253 270 303 310 313 338 318 302 292 285 276 275 180 187 261 313
147 145 157 177 178 176 173 175 169 167 166 167 168 169 170 171 173 176 177 182 188 192 198 204 220 229 239 268 286 294 303 311 338 310 298 292 293 218 160 145 114 25 38
107 128 137 154 188 191 186 185 178 174 174 173 173 176 177 179 184 186 189 193 199 200 208 215 235 256 263 278 286 292 295 299 291 276 285 278 278 107 115 111 101 98 92
107 143 167 188 184 188 197 199 192 184 181 178 178 180 182 188 193 199 202 208 211 212 221 233 251 265 279 283 287 293 291 289 291 274 263 256 216 126 121 124 119 109 100
253 208 184 207 205 209 197 204 196 196 195 189 187 185 181 178 194 207 214 220 226 227 235 249 265 276 286 289 298 301 290 270 258 252 246 240 180 148 146 140 124 116 114
245 232 211 208 212 207 211 190 186 207 186 184 194 188 170 190 205 205 219 231 237 240 245 253 264 278 290 285 287 294 281 280 264 252 244 203 169 164 162 142 135 130 124
216 252 225 204 214 213 205 181 197 201 185 200 194 178 200 208 216 214 197 227 215 250 236 253 274 275 279 271 261 275 280 278 263 248 215 179 178 174 175 152 143 143 137
246 240 204 205 208 215 196 198 197 208 208 197 209 197 202 208 212 214 212 210 209 229 239 240 251 262 273 270 257 267 266 264 252 224 208 175 185 186 178 162 158 158 158
243 252 237 183 206 214 199 204 200 215 214 210 198 196 201 205 218 214 210 192 199 210 220 235 245 257 272 285 272 255 267 266 224 202 192 187 190 188 184 177 178 179 176
239 243 232 209 201 185 202 209 209 215 216 207 200 192 201 218 225 209 203 204 213 210 215 224 236 248 259 263 275 260 264 241 202 192 197 193 187 192 194 197 198 194 182
234 243 232 212 203 200 199 201 204 206 196 206 199 197 197 209 218 216 216 213 226 215 214 219 236 245 258 253 259 265 269 238 190 189 188 177 196 207 208 210 210 205 194
249 231 244 226 200 198 203 203 208 207 190 208 203 189 202 205 201 206 214 226 224 214 219 220 223 243 248 248 261 259 262 203 175 178 152 156 224 167 233 219 219 211 200
277 240 236 236 205 199 208 207 197 176 197 198 191 203 203 205 202 205 210 220 218 222 217 225 232 215 237 254 257 237 268 258 207 170 185 181 201 206 228 278 230 192 193
272 252 238 202 254 211 173 138 160 189 218 202 212 210 206 208 203 194 206 213 220 219 233 219 229 207 229 228 258 80 32 49 71 51 189 109 209 209 243 211 54 111 123
280 259 226 211 214 182 165 173 180 208 209 208 212 202 208 202 201 198 205 202 206 224 232 229 222 209 218 189 116 98 62 42 52 51 32 11 59 42 182 118 105 88 86
305 271 239 216 205 195 198 178 138 147 170 169 205 228 232 228 213 209 199 203 203 208 221 204 197 191 203 187 160 113 167 155 61 58 34 50 49 72 75 82 88 76 72
328 293 244 231 218 188 187 127 88 77 69 138 96 189 220 214 218 219 221 210 212 194 199 199 190 183 188 193 200 160 139 198 105 5 53 58 66 75 80 81 78 73 62
336 301 282 244 229 134 138 177 153 165 161 153 191 155 251 214 226 225 230 226 204 191 190 198 166 210 171 191 118 316 81 111 143 208 57 46 68 71 69 71 69 63 53
351 358 348 25 138 145 159 144 78 96 114 193 147 227 237 242 237 239 237 231 221 215 218 210 194 177 211 164 175 168 106 90 80 112 133 162 75 61 70 67 61 55 44
357 5 6 348 80 107 120 128 144 138 154 177 196 230 229 251 243 237 231 231 229 218 208 201 195 179 169 161 129 110 129 146 139 153 133 109 139 111 74 56 48 46 35